Location: Aranbee
(34.0885°N, 118.2342°W)
Time: 04:06:59
(UTC+00:00)

Courier 1B - Pass Details

Date: 26 November 2020
Orbit: 962 x 1209 km, 28.3° (Epoch: 17 January)

Event Time Altitude Azimuth Distance (km) Brightness Sun altitude
Exits shadow 11:14:59 27° 146° (SSE) 2,099 9.4 -41.3°
Drops below altitude 10° 11:18:43 10° 128° (SE) 3,135 10.6 -40.5°
Sets 11:21:45 0° 122° (ESE) 4,103 11.4 -39.9°
